AC0ID-13 Weather Reports


Display with metric or nautical units.
time (UTC)temp
F
wind
direction
speed
MPH
gust
MPH
rain 1hr
in
rain 24hr
in
rain mn
in
humidity
%
barometer
mb
20260902012014 76 215 0.0 0.0 0.00 0.00 0.00 78 1013.7
20260902011522 77 215 0.0 0.0 0.00 0.00 0.00 78 1013.6
20260902011015 77 215 0.0 0.0 0.00 0.00 0.00 77 1013.6
20260902010514 77 215 0.0 0.0 0.00 0.00 0.00 77 1013.5
20260902010034 77 215 0.0 0.0 0.00 0.00 0.00 76 1013.5
20260902005512 78 215 0.0 0.0 0.00 0.00 0.00 76 1013.8
20260902005018 78 215 0.0 0.0 0.00 0.00 0.00 75 1013.7
20260902004532 78 215 0.0 0.0 0.00 0.00 0.00 74 1013.6
20260902004017 78 215 0.0 0.0 0.00 0.00 0.00 74 1013.6
20260902003515 79 215 0.0 1.0 0.00 0.00 0.00 73 1013.6
20260902003006 79 215 0.0 1.0 0.00 0.00 0.00 73 1013.7
20260902002501 79 215 0.0 0.0 0.00 0.00 0.00 73 1013.7
20260902002003 80 215 0.0 0.0 0.00 0.00 0.00 72 1013.7
20260902001503 80 215 0.0 0.0 0.00 0.00 0.00 72 1013.7
20260902001002 80 215 0.0 0.0 0.00 0.00 0.00 71 1013.8
20260902000503 80 215 0.0 0.0 0.00 0.00 0.00 71 1013.8
20260902000007 80 215 0.0 0.0 0.00 0.00 0.00 70 1013.7
20260901235504 81 215 0.0 0.0 0.00 0.00 0.00 70 1013.7
20260901235003 81 215 0.0 0.0 0.00 0.00 0.00 69 1013.7
20260901234505 82 215 0.0 2.0 0.00 0.00 0.00 67 1013.7
20260901234002 82 215 0.0 2.0 0.00 0.00 0.00 65 1013.8
20260901233506 82 248 1.0 2.0 0.00 0.00 0.00 65 1013.8
20260901233012 82 215 0.0 1.0 0.00 0.00 0.00 65 1013.7
20260901232505 82 212 0.0 3.0 0.00 0.00 0.00 64 1013.7
20260901232004 82 211 0.0 3.0 0.00 0.00 0.00 63 1013.7
20260901231503 82 175 0.0 2.0 0.00 0.00 0.00 64 1013.7
20260901231005 82 252 0.0 1.0 0.00 0.00 0.00 66 1013.6
20260901230504 82 252 0.0 1.0 0.00 0.00 0.00 64 1013.5
20260901230008 83 252 0.0 0.0 0.00 0.00 0.00 64 1013.4
20260901225504 83 253 0.0 0.0 0.00 0.00 0.00 62 1013.5
20260901225003 83 253 0.0 2.0 0.00 0.00 0.00 62 1013.3
20260901224511 84 253 0.0 3.0 0.00 0.00 0.00 62 1013.4
20260901224008 84 243 0.0 3.0 0.00 0.00 0.00 61 1013.5
20260901223504 84 241 0.0 3.0 0.00 0.00 0.00 62 1013.6
20260901223011 84 234 0.0 4.0 0.00 0.00 0.00 61 1013.6
20260901222506 84 172 0.0 4.0 0.00 0.00 0.00 61 1013.6
20260901222004 84 257 1.0 3.0 0.00 0.00 0.00 60 1013.6
20260901221508 84 233 0.0 4.0 0.00 0.00 0.00 61 1013.7
20260901221005 84 193 1.0 6.0 0.00 0.00 0.00 61 1013.9
20260901220505 84 200 1.0 6.0 0.00 0.00 0.00 60 1014.0
20260901220007 84 241 0.0 4.0 0.00 0.00 0.00 59 1014.0
20260901215504 84 243 0.0 5.0 0.00 0.00 0.00 59 1013.9
20260901215008 85 218 0.0 6.0 0.00 0.00 0.00 58 1013.9
20260901214510 85 242 1.0 6.0 0.00 0.00 0.00 57 1013.9
20260901214007 85 207 0.0 3.0 0.00 0.00 0.00 55 1013.7
20260901213504 85 120 0.0 1.0 0.00 0.00 0.00 56 1013.7
20260901213019 85 120 0.0 2.0 0.00 0.00 0.00 57 1013.5
20260901212506 85 135 0.0 2.0 0.00 0.00 0.00 54 1013.3
20260901212008 86 170 0.0 2.0 0.00 0.00 0.00 54 1013.4
20260901211512 86 69 0.0 4.0 0.00 0.00 0.00 52 1013.7
20260901211008 86 219 0.0 4.0 0.00 0.00 0.00 48 1013.7
20260901210506 87 271 1.0 4.0 0.00 0.00 0.00 47 1013.7
20260901210014 87 204 0.0 4.0 0.00 0.00 0.00 47 1013.6
20260901205508 87 254 0.0 3.0 0.00 0.00 0.00 48 1013.5
20260901205009 87 242 1.0 3.0 0.00 0.00 0.00 46 1013.7
20260901204516 86 85 0.0 1.0 0.00 0.00 0.00 52 1013.5
20260901204008 85 85 0.0 2.0 0.00 0.00 0.00 50 1013.4
20260901203508 86 85 0.0 4.0 0.00 0.00 0.00 50 1013.5
20260901203014 86 136 1.0 4.0 0.00 0.00 0.00 47 1013.3
20260901202509 86 202 0.0 4.0 0.00 0.00 0.00 47 1014.1
20260901202010 87 134 0.0 3.0 0.00 0.00 0.00 47 1014.1
20260901201510 87 138 0.0 3.0 0.00 0.00 0.00 46 1014.1
20260901201007 88 213 0.0 6.0 0.00 0.00 0.00 45 1014.3
20260901200507 89 64 2.0 8.0 0.00 0.00 0.00 46 1014.4
20260901200016 89 197 2.0 8.0 0.00 0.00 0.00 44 1014.4
20260901195510 89 229 0.0 6.0 0.00 0.00 0.00 45 1014.4
20260901195007 89 142 1.0 6.0 0.00 0.00 0.00 44 1014.4
20260901194512 89 124 1.0 3.0 0.00 0.00 0.00 46 1014.4
20260901194009 87 248 0.0 3.0 0.00 0.00 0.00 46 1014.4
20260901193508 86 171 0.0 3.0 0.00 0.00 0.00 50 1014.4
20260901193014 86 138 0.0 3.0 0.00 0.00 0.00 48 1014.4
20260901192513 86 106 0.0 2.0 0.00 0.00 0.00 47 1014.3
20260901192012 86 212 0.0 2.0 0.00 0.00 0.00 48 1014.3
20260901191517 86 254 0.0 2.0 0.00 0.00 0.00 48 1014.3
20260901191012 86 203 0.0 2.0 0.00 0.00 0.00 47 1014.4
20260901190509 86 279 0.0 2.0 0.00 0.00 0.00 48 1014.4
20260901190020 85 49 0.0 1.0 0.00 0.00 0.00 48 1014.3
20260901185512 85 26 0.0 2.0 0.00 0.00 0.00 51 1014.3
20260901185008 85 26 0.0 2.0 0.00 0.00 0.00 51 1014.4
20260901184516 86 22 0.0 1.0 0.00 0.00 0.00 51 1014.6
20260901184008 86 227 0.0 3.0 0.00 0.00 0.00 49 1014.7
20260901183508 86 319 0.0 3.0 0.00 0.00 0.00 46 1014.8
20260901183023 87 9 0.0 2.0 0.00 0.00 0.00 46 1014.9
20260901182509 87 21 0.0 2.0 0.00 0.00 0.00 50 1015.0
20260901182012 87 159 0.0 2.0 0.00 0.00 0.00 47 1015.0
20260901181518 86 281 0.0 3.0 0.00 0.00 0.00 47 1015.2
20260901181009 86 5 1.0 3.0 0.00 0.00 0.00 46 1015.3
20260901180510 85 325 0.0 2.0 0.00 0.00 0.00 52 1015.3
20260901180021 84 104 0.0 3.0 0.00 0.00 0.00 50 1015.4
20260901175511 85 196 0.0 3.0 0.00 0.00 0.00 48 1015.3
20260901175011 85 324 0.0 2.0 0.00 0.00 0.00 52 1015.3
20260901174518 86 167 0.0 2.0 0.00 0.00 0.00 46 1015.3
20260901174016 86 279 0.0 3.0 0.00 0.00 0.00 46 1015.3
20260901173512 86 5 0.0 5.0 0.00 0.00 0.00 45 1015.2
20260901173022 86 24 1.0 5.0 0.00 0.00 0.00 50 1015.3
20260901172512 85 360 1.0 3.0 0.00 0.00 0.00 47 1015.3
20260901172012 86 9 0.0 4.0 0.00 0.00 0.00 47 1015.4
20260901171520 87 31 1.0 4.0 0.00 0.00 0.00 44 1015.4
20260901171012 88 255 0.0 5.0 0.00 0.00 0.00 45 1015.4
20260901170511 87 310 0.0 5.0 0.00 0.00 0.00 46 1015.5
20260901170038 87 321 1.0 4.0 0.00 0.00 0.00 44 1015.5
20260901165515 88 329 1.0 4.0 0.00 0.00 0.00 46 1015.4
20260901165010 87 332 1.0 4.0 0.00 0.00 0.00 48 1015.3
20260901164523 87 310 0.0 3.0 0.00 0.00 0.00 47 1015.3
20260901164012 87 310 0.0 3.0 0.00 0.00 0.00 42 1015.4
20260901163512 86 38 0.0 4.0 0.00 0.00 0.00 45 1015.4
20260901163020 86 211 1.0 4.0 0.00 0.00 0.00 47 1015.4
20260901162511 86 360 1.0 4.0 0.00 0.00 0.00 45 1015.4
20260901162015 85 318 1.0 4.0 0.00 0.00 0.00 47 1015.4
20260901161521 85 10 1.0 5.0 0.00 0.00 0.00 46 1015.4
20260901161016 85 344 1.0 5.0 0.00 0.00 0.00 47 1015.4
20260901160515 84 331 1.0 4.0 0.00 0.00 0.00 48 1015.4
20260901160024 84 341 1.0 4.0 0.00 0.00 0.00 52 1015.4
20260901155512 83 327 1.0 5.0 0.00 0.00 0.00 51 1015.5
20260901155014 83 234 0.0 5.0 0.00 0.00 0.00 54 1015.5
20260901154524 83 24 1.0 4.0 0.00 0.00 0.00 57 1015.5
20260901154012 84 115 0.0 5.0 0.00 0.00 0.00 56 1015.5
20260901153512 83 319 1.0 5.0 0.00 0.00 0.00 60 1015.4
20260901153023 82 342 0.0 4.0 0.00 0.00 0.00 62 1015.4
20260901152511 81 298 0.0 3.0 0.00 0.00 0.00 68 1015.4
20260901152010 80 274 0.0 3.0 0.00 0.00 0.00 69 1015.4
20260901151515 80 9 0.0 4.0 0.00 0.00 0.00 68 1015.3
20260901151004 80 350 1.0 4.0 0.00 0.00 0.00 69 1015.4
20260901150509 79 5 0.0 3.0 0.00 0.00 0.00 69 1015.4
20260901150012 78 36 0.0 3.0 0.00 0.00 0.00 71 1015.4
20260901145503 77 230 0.0 2.0 0.00 0.00 0.00 72 1015.5
20260901145007 77 320 0.0 2.0 0.00 0.00 0.00 72 1015.5
20260901144517 76 230 0.0 2.0 0.00 0.00 0.00 74 1015.4
20260901144005 75 236 0.0 2.0 0.00 0.00 0.00 74 1015.4
20260901143502 75 246 0.0 2.0 0.00 0.00 0.00 77 1015.4
20260901143020 74 237 0.0 2.0 0.00 0.00 0.00 78 1015.5
20260901142508 73 137 0.0 0.0 0.00 0.00 0.00 81 1015.5
20260901142003 72 137 0.0 0.0 0.00 0.00 0.00 82 1015.5
20260901141513 71 202 0.0 0.0 0.00 0.00 0.00 84 1015.5
20260901141013 70 202 0.0 0.0 0.00 0.00 0.00 85 1015.4
20260901140512 70 223 0.0 0.0 0.00 0.00 0.00 86 1015.4
20260901140011 69 272 0.0 0.0 0.00 0.00 0.00 87 1015.4
20260901135512 69 305 0.0 0.0 0.00 0.00 0.00 87 1015.5
20260901135010 69 305 0.0 0.0 0.00 0.00 0.00 88 1015.5
20260901134517 68 305 0.0 0.0 0.00 0.00 0.00 88 1015.5
20260901134007 68 305 0.0 0.0 0.00 0.00 0.00 89 1015.4
20260901133511 68 305 0.0 0.0 0.00 0.00 0.00 90 1015.4
20260901133019 68 305 0.0 0.0 0.00 0.00 0.00 91 1015.4
20260901132507 67 305 0.0 0.0 0.00 0.00 0.00 92 1015.4
20260901132004 67 305 0.0 0.0 0.00 0.00 0.00 92 1015.4
20260901131509 67 305 0.0 0.0 0.00 0.00 0.00 92 1015.4
20260901131012 66 305 0.0 0.0 0.00 0.00 0.00 93 1015.3
20260901130513 66 305 0.0 0.0 0.00 0.00 0.00 93 1015.3
20260901130023 66 305 0.0 0.0 0.00 0.00 0.00 93 1015.2
20260901125510 66 305 0.0 0.0 0.00 0.00 0.00 93 1015.2
20260901125008 65 305 0.0 0.0 0.00 0.00 0.00 93 1015.2
20260901124517 65 305 0.0 0.0 0.00 0.00 0.00 93 1015.2
20260901124014 65 305 0.0 0.0 0.00 0.00 0.00 93 1015.1
20260901123513 65 305 0.0 0.0 0.00 0.00 0.00 93 1015.0
20260901123028 65 305 0.0 0.0 0.00 0.00 0.00 93 1015.0
20260901122512 64 305 0.0 0.0 0.00 0.00 0.00 93 1015.0
20260901122011 64 305 0.0 0.0 0.00 0.00 0.00 93 1015.0
20260901121523 64 305 0.0 0.0 0.00 0.00 0.00 93 1014.9
20260901121010 64 305 0.0 0.0 0.00 0.00 0.00 93 1014.9
20260901120510 64 305 0.0 0.0 0.00 0.00 0.00 93 1014.7
20260901120013 64 305 0.0 0.0 0.00 0.00 0.00 93 1014.7
20260901115509 63 305 0.0 0.0 0.00 0.00 0.00 93 1014.7
20260901115009 63 305 0.0 0.0 0.00 0.00 0.00 92 1014.7
20260901114520 63 305 0.0 0.0 0.00 0.00 0.00 92 1014.7
20260901114012 63 305 0.0 0.0 0.00 0.00 0.00 92 1014.5
20260901113511 63 305 0.0 0.0 0.00 0.00 0.00 92 1014.6
20260901113024 63 305 0.0 0.0 0.00 0.00 0.00 92 1014.6
20260901112512 63 305 0.0 0.0 0.00 0.00 0.00 92 1014.6
20260901112006 63 305 0.0 0.0 0.00 0.00 0.00 92 1014.6
20260901111523 63 305 0.0 0.0 0.00 0.00 0.00 92 1014.5
20260901111012 63 305 0.0 0.0 0.00 0.00 0.00 92 1014.4
20260901110513 63 305 0.0 0.0 0.00 0.00 0.00 92 1014.4
20260901110018 64 305 0.0 0.0 0.00 0.00 0.00 92 1014.3
20260901105520 64 305 0.0 0.0 0.00 0.00 0.00 92 1014.3
20260901105011 64 305 0.0 0.0 0.00 0.00 0.00 92 1014.3
20260901104522 64 305 0.0 0.0 0.00 0.00 0.00 92 1014.4
20260901104010 64 305 0.0 0.0 0.00 0.00 0.00 92 1014.4
20260901103512 64 305 0.0 0.0 0.00 0.00 0.00 92 1014.4
20260901103023 64 305 0.0 0.0 0.00 0.00 0.00 92 1014.4
20260901102511 64 305 0.0 0.0 0.00 0.00 0.00 91 1014.5
20260901102014 64 305 0.0 0.0 0.00 0.00 0.00 91 1014.5
20260901101529 64 305 0.0 0.0 0.00 0.00 0.00 91 1014.4
20260901101015 64 305 0.0 0.0 0.00 0.00 0.00 91 1014.4
20260901100514 64 305 0.0 0.0 0.00 0.00 0.00 91 1014.3
20260901100027 64 305 0.0 0.0 0.00 0.00 0.00 91 1014.2
20260901095515 65 305 0.0 0.0 0.00 0.00 0.00 91 1014.1
20260901095011 65 305 0.0 0.0 0.00 0.00 0.00 91 1014.1
20260901094525 65 305 0.0 0.0 0.00 0.00 0.00 91 1014.1
20260901094016 65 305 0.0 0.0 0.00 0.00 0.00 90 1014.0
20260901093511 65 305 0.0 0.0 0.00 0.00 0.00 90 1014.0
20260901093025 65 305 0.0 0.0 0.00 0.00 0.00 90 1014.0
20260901092503 65 305 0.0 0.0 0.00 0.00 0.00 90 1014.0
20260901092006 65 305 0.0 0.0 0.00 0.00 0.00 90 1014.1
20260901091504 66 305 0.0 0.0 0.00 0.00 0.00 90 1014.2
20260901091003 66 305 0.0 0.0 0.00 0.00 0.00 90 1014.2
20260901090504 66 305 0.0 0.0 0.00 0.00 0.00 90 1014.2
20260901090007 66 305 0.0 0.0 0.00 0.00 0.00 90 1014.1
20260901085503 66 305 0.0 0.0 0.00 0.00 0.00 90 1014.2
20260901085006 66 305 0.0 0.0 0.00 0.00 0.00 90 1014.2
20260901084511 66 305 0.0 0.0 0.00 0.00 0.00 89 1014.1
20260901084008 66 305 0.0 0.0 0.00 0.00 0.00 89 1014.0
20260901083508 66 305 0.0 0.0 0.00 0.00 0.00 89 1014.2
20260901083008 66 305 0.0 0.0 0.00 0.00 0.00 89 1014.1
20260901082508 67 305 0.0 0.0 0.00 0.00 0.00 88 1014.1
20260901082011 67 305 0.0 0.0 0.00 0.00 0.00 88 1014.1
20260901081504 67 305 0.0 0.0 0.00 0.00 0.00 88 1014.0
20260901081006 67 305 0.0 0.0 0.00 0.00 0.00 88 1014.0
20260901080509 67 305 0.0 0.0 0.00 0.00 0.00 88 1014.0
20260901080006 68 305 0.0 0.0 0.00 0.00 0.00 88 1014.0
20260901075504 68 305 0.0 0.0 0.00 0.00 0.00 87 1014.2
20260901075007 68 305 0.0 0.0 0.00 0.00 0.00 87 1014.2
20260901074508 68 305 0.0 0.0 0.00 0.00 0.00 87 1014.2
20260901074007 68 305 0.0 0.0 0.00 0.00 0.00 86 1014.3
20260901073505 68 305 0.0 0.0 0.00 0.00 0.00 87 1014.3
20260901073014 68 305 0.0 0.0 0.00 0.00 0.00 86 1014.4
20260901072510 68 305 0.0 0.0 0.00 0.00 0.00 86 1014.4
20260901072006 69 305 0.0 0.0 0.00 0.00 0.00 86 1014.4
20260901071516 69 305 0.0 1.0 0.00 0.00 0.00 86 1014.4
20260901071010 69 305 0.0 1.0 0.00 0.00 0.00 85 1014.3
20260901070512 69 305 0.0 0.0 0.00 0.00 0.00 85 1014.3
20260901070014 69 305 0.0 0.0 0.00 0.00 0.00 84 1014.3
20260901065514 70 305 0.0 0.0 0.00 0.00 0.00 84 1014.4
20260901065015 70 305 0.0 0.0 0.00 0.00 0.00 83 1014.4
20260901064507 70 305 0.0 0.0 0.00 0.00 0.00 83 1014.5
20260901064004 70 305 0.0 0.0 0.00 0.00 0.00 83 1014.3
20260901063504 71 305 0.0 0.0 0.00 0.00 0.00 83 1014.4
20260901063015 71 305 0.0 1.0 0.00 0.00 0.00 82 1014.4
20260901062508 71 305 0.0 1.0 0.00 0.00 0.00 82 1014.4
20260901062009 71 305 0.0 0.0 0.00 0.00 0.00 82 1014.3
20260901061514 71 305 0.0 1.0 0.00 0.00 0.00 82 1014.3
20260901061003 70 305 0.0 2.0 0.00 0.00 0.00 83 1014.2
20260901060510 70 360 0.0 3.0 0.00 0.00 0.00 83 1014.2
20260901060036 70 292 0.0 3.0 0.00 0.00 0.00 83 1014.2
20260901055513 70 5 0.0 3.0 0.00 0.00 0.00 83 1014.2
20260901055007 70 326 0.0 3.0 0.00 0.00 0.00 83 1014.2
20260901054518 70 328 0.0 1.0 0.00 0.00 0.00 84 1014.2
20260901054014 70 328 0.0 0.0 0.00 0.00 0.00 83 1014.2
20260901053505 70 328 0.0 0.0 0.00 0.00 0.00 83 1014.1
20260901053016 70 328 0.0 1.0 0.00 0.00 0.00 83 1014.0
20260901052503 70 328 0.0 1.0 0.00 0.00 0.00 83 1014.0
20260901052011 70 328 0.0 0.0 0.00 0.00 0.00 83 1013.9
20260901051511 71 328 0.0 0.0 0.00 0.00 0.00 83 1013.9
20260901051009 71 328 0.0 0.0 0.00 0.00 0.00 83 1013.8
20260901050511 71 328 0.0 1.0 0.00 0.00 0.00 83 1013.8
20260901050018 71 328 0.0 1.0 0.00 0.00 0.00 83 1013.7
20260901045511 71 328 0.0 1.0 0.00 0.00 0.00 83 1013.7
20260901045013 71 328 0.0 1.0 0.00 0.00 0.00 82 1013.7
20260901044526 72 328 0.0 1.0 0.00 0.00 0.00 82 1013.7
20260901044007 72 320 0.0 1.0 0.00 0.00 0.00 82 1013.6
20260901043513 72 320 0.0 0.0 0.00 0.00 0.00 82 1013.6
20260901043027 72 320 0.0 0.0 0.00 0.00 0.00 81 1013.6
20260901042515 72 320 0.0 1.0 0.00 0.00 0.00 81 1013.6
20260901042008 73 320 0.0 2.0 0.00 0.00 0.00 81 1013.6
20260901041524 73 320 0.0 3.0 0.00 0.00 0.00 81 1013.7
20260901041005 73 352 0.0 3.0 0.00 0.00 0.00 81 1013.6
20260901040506 73 205 0.0 0.0 0.00 0.00 0.00 81 1013.6
20260901040017 73 205 0.0 0.0 0.00 0.00 0.00 81 1013.6
20260901035512 73 205 0.0 1.0 0.00 0.00 0.00 81 1013.5
20260901035011 74 205 0.0 1.0 0.00 0.00 0.00 81 1013.6
20260901034516 74 205 0.0 1.0 0.00 0.00 0.00 80 1013.5
20260901034013 74 205 0.0 0.0 0.00 0.00 0.00 80 1013.5
20260901033515 74 205 0.0 1.0 0.00 0.00 0.00 79 1013.5
20260901033027 75 205 0.0 1.0 0.00 0.00 0.00 79 1013.4
20260901032510 75 205 0.0 1.0 0.00 0.00 0.00 79 1013.5
20260901032014 75 205 0.0 1.0 0.00 0.00 0.00 78 1013.5
20260901031530 76 205 0.0 1.0 0.00 0.00 0.00 78 1013.5
20260901031010 76 100 0.0 1.0 0.00 0.00 0.00 77 1013.5
20260901030512 76 105 0.0 1.0 0.00 0.00 0.00 77 1013.4
20260901030004 77 105 0.0 2.0 0.00 0.00 0.00 77 1013.3
20260901025504 77 343 0.0 2.0 0.00 0.00 0.00 77 1013.4
20260901025010 77 5 0.0 1.0 0.00 0.00 0.00 77 1013.4
20260901024503 77 319 0.0 2.0 0.00 0.00 0.00 76 1013.4
20260901024007 77 176 0.0 4.0 0.00 0.00 0.00 76 1013.4
20260901023504 78 150 0.0 4.0 0.00 0.00 0.00 76 1013.3
20260901023004 78 315 0.0 4.0 0.00 0.00 0.00 76 1013.3
20260901022503 78 44 0.0 1.0 0.00 0.00 0.00 76 1013.3
20260901022003 78 110 0.0 1.0 0.00 0.00 0.00 77 1013.2
20260901021507 78 54 0.0 1.0 0.00 0.00 0.00 77 1013.2
20260901021002 78 320 0.0 1.0 0.00 0.00 0.00 77 1013.2
20260901020506 79 46 0.0 1.0 0.00 0.00 0.00 77 1013.3
20260901020007 79 23 0.0 2.0 0.00 0.00 0.00 78 1013.2
20260901015503 79 52 0.0 2.0 0.00 0.00 0.00 78 1013.2
20260901015003 79 44 0.0 2.0 0.00 0.00 0.00 79 1013.1
20260901014512 80 225 0.0 1.0 0.00 0.00 0.00 79 1013.0
20260901014010 80 213 0.0 1.0 0.00 0.00 0.00 80 1013.0
20260901013504 80 224 0.0 1.0 0.00 0.00 0.00 81 1012.9
20260901013010 80 224 0.0 0.0 0.00 0.00 0.00 82 1012.8
20260901012510 81 224 0.0 3.0 0.00 0.00 0.00 81 1012.7